Location: Ergnies
(50.0854°N, 2.0375°E)
Time: 20:05:22
(UTC+00:00)

Cosmos 909 Rocket - Pass Details

Date: 14 January 2026
Orbit: 992 x 2087 km, 65.9° (Epoch: 13 February)

Event Time Altitude Azimuth Distance (km) Brightness Sun altitude
Exits shadow 04:58:14 50° 232° (SW) 1,329 4.3 -26.1°
Drops below altitude 10° 05:04:49 10° 168° (SSE) 3,126 6.8 -25.0°
Sets 05:07:51 0° 163° (SSE) 4,227 7.6 -24.6°
